Location: B�rgermoos
(47.6500°N, 9.0667°E)
Time: 07:48:52
(UTC+00:00)

Meteor 1-21 - Pass Details

Date: 18 September 2020
Orbit: 845 x 887 km, 81.2° (Epoch: 24 October)

Event Time Altitude Azimuth Distance (km) Brightness Sun altitude
Rises 18:12:55 0° 348° (NNW) 3,432 7.7 -8.2°
Reaches altitude 10° 18:15:21 10° 350° (N) 2,487 6.9 -8.6°
Maximum altitude 18:21:00 84° 78° (ENE) 858 4.2 -9.5°
Drops below altitude 10° 18:26:36 10° 168° (SSE) 2,461 6.4 -10.4°
Sets 18:29:00 0° 169° (SSE) 3,392 7.1 -10.8°
